Regional Weather Roundup
Issued by NWS

Home | Current Version | Previous Version | Graphics & Text | Print | Product List | Glossary On
Versions: 1 2 3 4 5 6 7 8 9 10 11 12 13 14 15 16 17 18 19 20 21 22 23 24 25 26 27 28 29 30 31 32 33 34 35 36 37 38 39 40 41 42 43 44 45 46 47 48 49 50
000
ASUS44 KMEG 250200
RWRTN
TENNESSEE HOURLY STATE WEATHER ROUNDUP
NATIONAL WEATHER SERVICE MEMPHIS TN
800 PM CST SAT FEB 24 2018

TNZ002-004-019-021-049-052-054-088>092-250300-
WEST TENNESSEE

CITY           SKY/WX    TMP DP  RH WIND       PRES   REMARKS
MEMPHIS INTL   TSTM      60  55  83 W25G35    29.86R
NWS MEMPHIS      N/A     61 N/A N/A MISG        N/A
JACKSON        MOCLDY    71  65  81 SW10G22   29.80R
DYERSBURG      LGT RAIN  62  60  93 SW21G26   29.80R
$$

TNZ008-025-027-028-033-062-065-066-250300-
NORTH MIDDLE TENNESSEE

CITY           SKY/WX    TMP DP  RH WIND       PRES   REMARKS
NASHVILLE      CLOUDY    71  60  68 S18G30    29.85S
CLARKSVILLE    LGT RAIN  68  61  78 S10G20    29.74F
SMYRNA         MOCLDY    70  61  73 S14G21    29.87S
CROSSVILLE     CLOUDY    61  59  93 S8G20     29.97F
$$

TNZ061-075-076-078-094-096-097-250300-
SOUTH MIDDLE TENNESSEE

CITY           SKY/WX    TMP DP  RH WIND       PRES   REMARKS
WINCHESTER     MOCLDY    66  61  82 S13       29.96R
$$

TNZ017-018-042-046-047-250300-
NORTHEAST TENNESSEE

CITY           SKY/WX    TMP DP  RH WIND       PRES   REMARKS
TRI CITIES     MOCLDY    60  59  96 CALM      29.99F
$$

TNZ012-013-036-069-073-074-250300-
CENTRAL EAST TENNESSEE

CITY           SKY/WX    TMP DP  RH WIND       PRES   REMARKS
KNOXVILLE      MOCLDY    63  59  87 SW7       29.95F
OAK RIDGE      CLOUDY    62  62 100 CALM      29.97F
$$

TNZ083-085-099-250300-
SOUTHEAST TENNESSEE

CITY           SKY/WX    TMP DP  RH WIND       PRES   REMARKS
CHATTANOOGA    MOCLDY    67  60  78 CALM      29.97F
$$

SKY/WX REPORTED AS FAIR MEANS FEW OR NO CLOUDS BELOW
12 THOUSAND FEET.





USA.gov is the U.S. government's official web portal to all federal, state and local government web resources and services.